Starlink 2613

operational
NORAD ID: 48353 Int'l Des: 2021-038 Owner: SPXS Country: US Constellation: starlink
LEOCIRCULARSTARLINK_TYPE

About Starlink 2613

Description loading...

Live Position

Loading 3D Globe...

Upcoming Passes

Altitude History

Altitude vs Time

uPlot chart will show altitude changes over time

Two-Line Element Set

1 48353U 21038A 25341.24730927 .00001844 00000-0 14272-3 0 9992
2 48353 53.0541 56.6067 0001165 76.0165 284.0953 15.06388176253096
Epoch: Dec 7, 2025 • Age: 22 hours

Current Status

Altitude 547.0 km
Velocity 7.59 km/s
Sub-Earth Point 10.78°N, 80.88°W
Launch Date May 4, 2021
Age 4.5 years
Type internet

Technical Details

Classification Payload
Mass 260.00 kg
Dry Mass 248.00 kg
Total Mass 260.00 kg
Length 0.20 m
Diameter 2.80 m
Span 9.00 m
Shape Box + pan
Manufacturer SPXS
Bus Type Starlink
Phase Status In Orbit
Owner/State SPXS/US

Large Constellations

Loading constellations...